COSMOS 1275 DEB, 15766

Orbit data source: Space-Track

COSMOS 1275 DEB, 15766 is space debris in LEO originally from a launch on Thu, 04 Jun 1981 UTC launched from the Plesetsk Missile And Space Complex (PKMTR). Debris objects in space refer to the collection of defunct objects orbiting the Earth. Examples of debris include non-operational satellites, rocket bodies, and fragments generated from explosions, collisions, or faulty payload assembly.

Loading next visibility...
Identifier
15766, 1981-053KB
Orbit
LEO
Country
Flag of CISCIS
Related business
Manufacturer
Unknown
Mission
Spacecraft
Bus & Motor
Unknown
Mass
Unknown
Launch date (UTC)
1981-06-04 (44 years ago)
Launch vehicle
Unknown
Launch site
Plesetsk Missile And Space Complex (PKMTR)
Object type
Payload
Rocket body
Debris
Shape & HBR
Unknown shape, 0.1 m
Radar Cross Section
Small (<0.1 m²)

Expand to show TLE details & history
Last TLE update: 1 day ago

TLE from 1 day ago
0 COSMOS 1275 DEB
1 15766U 81053KB  25285.58080358  .00007654  00000-0  22313-2 0  9996
2 15766  82.9347 140.4096 0006577 283.5760  76.4702 14.44053064 78361
Epoch: 2025-10-12T13:56Z
TLE epoch observation values (Epoch: 2025-10-12T13:56:21.429Z)
Latitude
0.00002°
Longitude
-90.07557°
Altitude
747.041 km
Speed
7.482 km/s
True Right ascension
09h 21m 38s
True Declination
0° 00' 00"
Sunlit
Object was in daylight at epoch
Visualization orbit readout
Latitude
Unknown
Longitude
Unknown
Altitude
Unknown
Speed
Unknown
Apparent Right ascension
Unknown
Apparent Declination
Unknown
Sunlit
N/A
Visualization observer readout
Local Sidereal Time
19:18:59
Azimuth
Unknown
Elevation
Unknown
Doppler factor
Unknown
Orbital elements
Apogee altitude
746.876 km
Perigee altitude
737.51 km
Semi-major axis
7,120.33 km
Eccentricity
0.00066
Inclination
82.9347°
RAAN
140.4096°
Arg. of periapsis
283.576°
True anomaly
76.54349°
Mean anomaly
76.4702°
Eccentric anomaly
76.50684°
Mean motion
3.61238 °/min
Orbital period
99.66 mins
BSTAR
0.0022313
Loading maneuver chart data...
Computing Atmospheric mass density...
Loading historical data...
Loading historical data...
Loading historical data...
Loading historical data...
Loading historical data...
Loading historical data...
Loading historical data...

Documentation

Showing up to 5 results
|